Terminal Aerodrome Forecast
Issued by NWS Wilmington, OH

Current Version | Previous Version | Text Only | Print | Product List | Glossary Off
Versions: 1 2 3 4 5 6 7 8 9 10 11 12 13 14 15 16 17 18 19 20 21 22 23 24 25

000
FTUS41 KILN 180900 AAA
TAFILN
TAF AMD
KILN 180900Z 1809/1906 30011KT P6SM OVC025
      TEMPO 1811/1814 SCT015 SCT025 OVC035
     FM181500 31012G22KT P6SM VCSH OVC022
     FM182300 32010G18KT P6SM OVC020
      TEMPO 1823/1903 33010KT OVC015
     FM190300 31008KT P6SM OVC014=

USA.gov is the U.S. government's official web portal to all federal, state and local government web resources and services.